Regional Weather Roundup
Issued by NWS

Home | Current Version | Previous Version | Graphics & Text | Print | Product List | Glossary On
Versions: 1 2 3 4 5 6 7 8 9 10 11 12 13 14 15 16 17 18 19 20 21 22 23 24 25 26 27 28 29 30 31 32 33 34 35 36 37 38 39 40 41 42 43 44 45 46 47 48 49 50
000
ASUS43 KMPX 081210
RWRMN
WEATHER ROUNDUP FOR MINNESOTA
NATIONAL WEATHER SERVICE TWIN CITIES/CHANHASSEN MN
600 AM CST THU DEC 08 2016


NOTE: "FAIR" INDICATES FEW OR NO CLOUDS BELOW 12,000 FEET WITH NO
SIGNIFICANT WEATHER AND/OR OBSTRUCTIONS TO VISIBILITY. N/A MEANS
CURRENT SKY AND/OR WEATHER CONDITIONS ARE NOT AVAILABLE.

MNZ060>063-068>070-081300-
   Twin Cities Metro

CITY           SKY/WX    TMP DP  RH WIND       PRES   REMARKS
TWIN CITIES    MOCLDY    17  11  77 NW15      30.23R WCI   2
6HR MIN TEMP:  16; 6HR MAX TEMP:  17; 6HR PCP: TRACE;

ST PAUL        MOCLDY    18  52 100 W12       30.24R WCI   5
CRYSTAL        PTCLDY    19  11  70 W15       30.22R WCI   5
BLAINE         CLEAR     19  16  86 W12       30.20R WCI   7
LAKEVILLE      FLURRIES  14  12  92 W13       30.23R WCI   0
EDEN PRAIRIE   PTCLDY    17  11  77 W13       30.23R WCI   4
6HR MIN TEMP:  16; 6HR MAX TEMP:  17; 6HR PCP: TRACE;

SOUTH ST PAUL  PTCLDY    18  13  79 W14       30.22R WCI   5
LAKE ELMO      FAIR      19  14  79 W12       30.21R WCI   7
$$
MNZ001>005-007-008-013>017-022>024-027-028-081300-
   Northwest Minnesota

CITY           SKY/WX    TMP DP  RH WIND       PRES   REMARKS
BEMIDJI        LGT SNOW  17  14  88 NW14      30.23R WCI   2
HALLOCK        CLOUDY    16  12  86 NW22G29   30.38R WCI  -2
ROSEAU         FLURRIES  18  12  79 NW13      30.29R WCI   4
WARROAD        LGT SNOW  16  12  86 NW13      30.28R WCI   2
THIEF RVR FALL LGT SNOW  16  12  86 NW16      30.32R FOG     WCI   0
CROOKSTON      CLOUDY    16  12  86 N24       30.37R FOG     WCI  -3
FOSSTON        LGT SNOW  14  12  92 NW20      30.30R WCI  -3
DETROIT LAKES  LGT SNOW  18  14  86 NW20G28   30.31R WCI   1
MOORHEAD       MIX PCPN  16  10  79 NW18      30.39R WCI  -1
PARK RAPIDS    LGT SNOW  18  11  74 NW14      30.24R WCI   4
$$
MNZ006-009>011-018-025>026-081300-
   North Central Minnesota

CITY           SKY/WX    TMP DP  RH WIND       PRES   REMARKS
BAUDETTE       LGT SNOW  20  15  81 NW13      30.22R WCI   7
FLAG ISLAND    CLOUDY    19  16  86 N17       30.26R WCI   4
INTL FALLS     LGT SNOW  19  15  84 NW10      30.17R FOG     WCI   7
6HR MIN TEMP:  19; 6HR MAX TEMP:  21; 6HR PCP:  0.01;

WASKISH        FLURRIES  18  16  93 NW13      30.23R WCI   4
BIG FORK       LGT SNOW  19  16  86 NW3       30.17R
LONGVILLE      LGT SNOW  19  16  86 NW9       30.20R WCI   9
GRAND RAPIDS   FLURRIES  18  14  84 NW14      30.18R WCI   4
CRANE LAKE     CLOUDY    19  18  93 NW7       30.15R FOG     WCI  10
ORR            LGT SNOW  18  16  93 NW9       30.11R WCI   6
COOK           LGT SNOW  18  16  93 W5        30.13R WCI  11
$$
MNZ012-019>021-037-081300-
   Northeast Minnesota

CITY           SKY/WX    TMP DP  RH WIND       PRES   REMARKS
DULUTH         FLURRIES  21  16  81 NW16G22   30.08R WCI   7
6HR MIN TEMP:  20; 6HR MAX TEMP:  22; 6HR PCP:  0.01;

ELY            FLURRIES  18  16  93 NW10      30.07R WCI   6
HIBBING        LGT SNOW  18  14  84 NW20      30.12R FOG     WCI   2
EVELETH        FLURRIES  20  16  83 NW10G16   30.11R WCI   9
DULUTH HARBOR  CLOUDY    27  19  74 NW16G23   30.13R WCI  14
TWO HARBORS    FLURRIES  25  18  74 NW7       30.06R WCI  17
SILVER BAY     MOCLDY    23  18  80 NW6       30.05R WCI  16
GRAND MARAIS     N/A     25  16  68 NW8G20    30.03R WCI  16
G MARAIS ARPRT LGT SNOW  18  10  73 NW12G22   29.95R WCI   5
$$
MNZ029>031-032-039>041-046>048-054>057-064-081300-
   West Central Minnesota

CITY           SKY/WX    TMP DP  RH WIND       PRES   REMARKS
FERGUS FALLS   LGT SNOW  16  12  86 NW20      30.39R WCI  -1
WHEATON        LGT SNOW  12  10  92 NW20G25   30.42R WCI  -6
MORRIS         LGT SNOW  12  10  92 NW26G32   30.34R WCI  -8
ALEXANDRIA     CLOUDY    16  12  84 NW21G26   30.28R WCI  -1
ELBOW LAKE     LGT SNOW  14  12  92 NW18G26   30.34R WCI  -3
WADENA         FLURRIES  16  12  86 NW16      30.25R WCI   0
GLENWOOD       LGT SNOW  16  12  86 W17G31    30.29R WCI   0
APPLETON       CLOUDY    14   9  79 NW25G31   30.38R WCI  -5
BENSON         FLURRIES  16  10  79 N20G29    30.34R WCI  -1
ORTONVILLE     CLOUDY    12   7  79 NW20G31   30.39R WCI  -6
MADISON        LGT SNOW  16  10  79 NW20G26   30.40R WCI  -1
WILLMAR        LGT SNOW  18  12  79 NW21G29   30.32R WCI   1
$$
MNZ033>034-036-042>043-049>051-058-059-081300-
   Central Minnesota

CITY           SKY/WX    TMP DP  RH WIND       PRES   REMARKS
ST CLOUD       CLOUDY    19  14  81 NW15      30.23R WCI   5
6HR MIN TEMP:  14; 6HR MAX TEMP:  19; 6HR PCP: TRACE;

PAYNESVILLE    CLOUDY    17  16  95 W14       30.27R WCI   3
AITKIN         MIX PCPN  21  14  73 NW8G17    30.17R WCI  12
PINE RIVER     MOCLDY    18  12  79 NW7       30.25R WCI   8
BRAINERD       CLOUDY    18  13  80 NW15      30.22R WCI   4
STAPLES        FLURRIES  18  12  79 NW14G22   30.24R WCI   4
LONG PRAIRIE   FLURRIES  19  14  79 W14G20    30.25R WCI   6
LITTLE FALLS   FLURRIES  19  12  73 NW9G20    30.24R WCI   9
LITCHFIELD     CLOUDY    18  12  79 NW13G22   30.27R WCI   4
BUFFALO        PTCLDY    17  13  83 W10       30.25R WCI   5
MAPLE LAKE     CLEAR     19  15  88 W12G17    30.24R WCI   6
HUTCHINSON     LGT SNOW  17  14  86 W16G23    30.28R WCI   2
$$
MNZ037-044-045-052-053-081300-
   East Central Minnesota

CITY           SKY/WX    TMP DP  RH WIND       PRES   REMARKS
PRINCETON      CLEAR     19  16  86 W14G22    30.21R WCI   6
MORA           FLURRIES  21  18  86 W8        30.19R WCI  12
CAMBRIDGE      CLOUDY    21  14  73 W9        30.18R WCI  11
RUSH CITY      CLOUDY    19  18  93 W7        30.18R WCI  10
MOOSE LAKE     FLURRIES  21  18  86 NW7G16    30.13R WCI  13
HINCKLEY       CLOUDY    23  19  86 NW6       30.16R WCI  16
CLOQUET        FLURRIES  19  16  86 NW14G20   30.11R WCI   6
MCGREGOR       MOCLDY    21  18  86 NW13G18   30.16R WCI   9
$$
MNZ071>073-080-081-089-090-097-098-081300-
   Southwest Minnesota

CITY           SKY/WX    TMP DP  RH WIND       PRES   REMARKS
MONTEVIDEO     LGT SNOW  16  10  79 N16G26    30.37R WCI   0
GRANITE FALLS  FLURRIES  17  12  82 W24       30.38R WCI  -2
CANBY          CLOUDY    13   8  78 NW20G29   30.41R WCI  -4
MARSHALL       FLURRIES  12   6  77 NW24      30.36R WCI  -8
REDWOOD FALLS  LGT SNOW  16  10  77 NW18G28   30.33R WCI   0
OLIVIA         LGT SNOW  18  14  86 NW22G28   30.31R WCI   0
PIPESTONE      CLEAR      9   3  78 NW17G24   30.37R WCI -10
WINDOM         FLURRIES  12   9  85 W20G26    30.32R WCI  -6
WORTHINGTON    FLURRIES   8   4  83 W24       30.36R WCI -13
JACKSON        MOCLDY    12   5  73 NW18G25   30.33R WCI  -5
TRACY          CLOUDY    13   9  83 NW20G25   30.36R WCI  -4
SLAYTON        CLOUDY    10   6  84 W21       30.34R WCI -10
$$
MNZ065>067-074>077-082>085-091>093-081300-
   South Central Minnesota

CITY           SKY/WX    TMP DP  RH WIND       PRES   REMARKS
MANKATO        FLURRIES  16  11  80 NW16G31   30.29R WCI   1
NEW ULM        FLURRIES  16  10  79 NW22G33   30.31R WCI  -2
ST JAMES       FLURRIES  16  10  79 W23G30    30.33R WCI  -2
FAIRMONT       FLURRIES  14   9  80 NW18      30.33R WCI  -3
GLENCOE        CLOUDY    17  15  90 W16       30.26R WCI   2
FARIBAULT      LGT SNOW  16  12  86 W10G17    30.25  WCI   3
OWATONNA       LGT SNOW  16  10  79 W17       30.24R WCI   0
WASECA         LGT SNOW  18  14  86 W20       30.27R WCI   1
ALBERT LEA     LGT SNOW  18  12  79 NW14G26   30.26R WCI   4
$$
MNZ078>079-086>088-094>096-081300-
   Southeast Minnesota

CITY           SKY/WX    TMP DP  RH WIND       PRES   REMARKS
ROCHESTER      LGT SNOW  15  10  80 W17       30.20R WCI  -1
6HR MIN TEMP:  12; 6HR MAX TEMP:  15; 6HR PCP: TRACE;

RED WING       FLURRIES  18  12  79 W10       30.21R WCI   6
STANTON        PTCLDY    17  12  82 W14G20    30.23R WCI   2
DODGE CENTER   LGT SNOW  14  10  85 W20       30.21R WCI  -3
WINONA         CLOUDY    19  12  73 W12       30.22R WCI   7
AUSTIN         LGT SNOW  14   9  79 W17G25    30.24R WCI  -3
PRESTON        LGT SNOW  13   9  82 W17       30.21R WCI  -4
$$
ABBREVIATIONS USED IN REMARKS
   TC - TEMPERATURES IN CELSIUS
  WCI - WIND CHILL INDEX
   HX - HEAT INDEX
  VSB - VISIBILITY
$$




USA.gov is the U.S. government's official web portal to all federal, state and local government web resources and services.